Weather History for Fort Stockton, TX

Change the Weather History Date:

Saturday, August 11, 2012

  Actual Average Record
Temperature  
Mean Temperature 86 °F -  
Max Temperature 100 °F 92 °F 104 °F (2006)
Min Temperature 71 °F 69 °F 64 °F (1996)
Cooling Degree Days 20    
Growing Degree Days 36 (Base 50)    
Moisture  
Dew Point 50 °F    
Average Humidity 31    
Maximum Humidity 55    
Minimum Humidity 15    
Precipitation  
Precipitation 0.00 in - - ()
Sea Level Pressure  
Sea Level Pressure 29.86 in    
Wind  
Wind Speed 6 mph (SE)    
Max Wind Speed 14 mph    
Max Gust Speed 22 mph    
Visibility 10 miles    
Events      
Averages and records for this station are not official NWS values.
T = Trace of Precipitation, MM = Missing Value Source: NWS Daily Summary

Daily Weather History Graph

Daily Weather History Graph

Search for Another Location

Airport:

Trip Planner

Search our weather history database for the weather conditions in past years. The results will help you decide how hot, cold, wet, or windy it might be!

Date:

Astronomy

Aug. 11, 2012 Rise Set
Actual Time 7:15 AM CDT 8:37 PM CDT
Civil Twilight 6:50 AM CDT 9:02 PM CDT
Nautical Twilight 6:19 AM CDT 9:33 PM CDT
Astronomical Twilight 5:47 AM CDT 10:05 PM CDT
Moon 1:52 AM CDT (8/11) 4:05 PM CDT (8/11)
Length of Visible Light 14h 12m
Length of Day
13h 21m
Waning Crescent, 32% of the Moon is Illuminated
Aug 11
Waning Crescent
Aug 17
New
Aug 24
First Quarter
Aug 31
Full
Sep 8
Last Quarter

Hourly Weather History & Observations

Time (CDT) Temp. Heat Index Dew Point Humidity Pressure Visibility Wind Dir Wind Speed Gust Speed Precip Events Conditions
12:53 AM 82.9 °F - 48.0 °F 29% 29.86 in 10.0 mi ESE 8.1 mph - N/A   Clear
1:53 AM 80.1 °F 80.0 °F 54.0 °F 40% 29.86 in 10.0 mi SSE 4.6 mph - N/A   Clear
2:53 AM 77.0 °F - 54.0 °F 45% 29.86 in 10.0 mi SSE 4.6 mph - N/A   Clear
3:53 AM 75.0 °F - 54.0 °F 48% 29.87 in 10.0 mi SSE 5.8 mph - N/A   Clear
4:53 AM 75.9 °F - 55.0 °F 48% 29.87 in 10.0 mi SSE 5.8 mph - N/A   Clear
5:53 AM 73.9 °F - 55.0 °F 52% 29.87 in 10.0 mi South 4.6 mph - N/A   Clear
6:53 AM 71.1 °F - 54.0 °F 55% 29.88 in 10.0 mi SSE 4.6 mph - N/A   Clear
7:53 AM 73.0 °F - 55.0 °F 53% 29.90 in 10.0 mi South 8.1 mph - N/A   Clear
8:53 AM 78.1 °F - 55.0 °F 45% 29.91 in 10.0 mi SE 3.5 mph - N/A   Clear
9:53 AM 84.0 °F 82.9 °F 55.0 °F 37% 29.91 in 10.0 mi ESE 3.5 mph - N/A   Clear
10:53 AM 87.1 °F 85.3 °F 55.0 °F 33% 29.92 in 10.0 mi Calm Calm - N/A   Clear
11:53 AM 91.0 °F 88.7 °F 54.0 °F 28% 29.91 in 10.0 mi Calm Calm - N/A   Clear
12:53 PM 95.0 °F 92.5 °F 53.1 °F 24% 29.89 in 10.0 mi Calm Calm - N/A   Clear
1:53 PM 98.1 °F - 48.9 °F 19% 29.87 in 10.0 mi East 3.5 mph - N/A   Clear
2:53 PM 99.0 °F - 48.0 °F 18% 29.85 in 10.0 mi ESE 13.8 mph 20.7 mph N/A   Clear
3:53 PM 100.0 °F - 46.9 °F 16% 29.83 in 10.0 mi SE 9.2 mph - N/A   Clear
4:53 PM 100.0 °F - 45.0 °F 15% 29.81 in 10.0 mi SE 10.4 mph - N/A   Clear
5:53 PM 99.0 °F - 44.1 °F 15% 29.81 in 10.0 mi SSE 10.4 mph - N/A   Clear
6:53 PM 98.1 °F - 45.0 °F 16% 29.80 in 10.0 mi SSE 9.2 mph 21.9 mph N/A   Clear
7:53 PM 96.1 °F - 45.0 °F 17% 29.81 in 10.0 mi SE 13.8 mph - N/A   Clear
8:53 PM 93.0 °F - 46.0 °F 20% 29.82 in 10.0 mi SE 10.4 mph - N/A   Clear
9:53 PM 90.0 °F - 46.9 °F 23% 29.83 in 10.0 mi SE 9.2 mph - N/A   Clear
10:53 PM 84.9 °F - 46.9 °F 27% 29.85 in 10.0 mi SSE 8.1 mph - N/A   Clear
11:53 PM 82.9 °F - 46.0 °F 27% 29.85 in 10.0 mi South 9.2 mph - N/A   Clear